Weather History for LFMC - June, 2013

Change the Weather History Date:

Saturday, June 29, 2013

  Actual Average (LFTH) Record (LFTH)
Temperature  
Mean Temperature 72 °F -  
Max Temperature 86 °F 80 °F 89 °F (2011)
Min Temperature 57 °F 64 °F 53 °F (2007)
Cooling Degree Days 6    
Growing Degree Days 22 (Base 50)    
Moisture  
Dew Point 49 °F    
Average Humidity 46    
Maximum Humidity 72    
Minimum Humidity 27    
Precipitation  
Precipitation 0.00 in - - ()
Sea Level Pressure  
Sea Level Pressure 30.07 in    
Wind  
Wind Speed 8 mph ()    
Max Wind Speed 26 mph    
Max Gust Speed 37 mph    
Visibility 6.2 miles    
Events      
Averages and records for this station are not official NWS values.
T = Trace of Precipitation, MM = Missing Value Source: Averaged Metar Reports

Daily Weather History Graph

Daily Weather History Graph

Search for Another Location

Airport or City:

Trip Planner

Search our weather history database for the weather conditions in past years. The results will help you decide how hot, cold, wet, or windy it might be!

Date:

Astronomy

Jun. 29, 2013 Rise Set
Actual Time 5:56 AM CEST 9:19 PM CEST
Civil Twilight 5:21 AM CEST 9:54 PM CEST
Nautical Twilight 4:34 AM CEST 10:40 PM CEST
Astronomical Twilight 3:36 AM CEST 11:38 PM CEST
Moon 12:27 AM CEST (6/29) 1:04 PM CEST (6/29)
Length of Visible Light 16h 33m
Length of Day
15h 22m
Waning Gibbous, 58% of the Moon is Illuminated
Jun 29
Waning Gibbous
Jun 30
Last Quarter
Jul 8
New
Jul 16
First Quarter
Jul 22
Full

Hourly Weather History & Observations

Time (CEST) Temp. Heat Index Dew Point Humidity Pressure Visibility Wind Dir Wind Speed Gust Speed Precip Events Conditions
12:00 AM 62.6 °F - 53.6 °F 72% 30.09 in 6.2 mi West 3.5 mph - N/A   Unknown
12:30 AM 64.4 °F - 46.4 °F 52% 30.12 in 6.2 mi West 8.1 mph - N/A   Unknown
1:00 AM 62.6 °F - 48.2 °F 59% 30.12 in 6.2 mi Variable 3.5 mph - N/A   Unknown
1:30 AM 60.8 °F - 46.4 °F 59% 30.12 in 6.2 mi SSW 3.5 mph - N/A   Unknown
2:00 AM 60.8 °F - 46.4 °F 59% 30.12 in 6.2 mi WSW 4.6 mph - N/A   Unknown
2:30 AM 60.8 °F - 46.4 °F 59% 30.12 in 6.2 mi SW 4.6 mph - N/A   Unknown
3:00 AM 59.0 °F - 46.4 °F 63% 30.12 in 6.2 mi SW 4.6 mph - N/A   Unknown
3:30 AM 59.0 °F - 46.4 °F 63% 30.12 in 6.2 mi SSW 3.5 mph - N/A   Unknown
4:00 AM 57.2 °F - 44.6 °F 63% 30.12 in 6.2 mi SW 3.5 mph - N/A   Unknown
4:30 AM 57.2 °F - 44.6 °F 63% 30.12 in 6.2 mi SW 4.6 mph - N/A   Unknown
5:00 AM 57.2 °F - 44.6 °F 63% 30.12 in 6.2 mi SW 4.6 mph - N/A   Unknown
5:30 AM 57.2 °F - 44.6 °F 63% 30.12 in 6.2 mi SW 4.6 mph - N/A   Unknown
6:00 AM 57.2 °F - 44.6 °F 63% 30.12 in 6.2 mi WSW 5.8 mph - N/A   Unknown
6:30 AM 57.2 °F - 44.6 °F 63% 30.12 in 6.2 mi SW 4.6 mph - N/A   Unknown
7:00 AM 59.0 °F - 44.6 °F 59% 30.12 in 6.2 mi Variable 2.3 mph - N/A   Unknown
7:30 AM 60.8 °F - 44.6 °F 55% 30.12 in 6.2 mi Variable 2.3 mph - N/A   Unknown
8:00 AM 64.4 °F - 46.4 °F 52% 30.12 in 6.2 mi SW 3.5 mph - N/A   Unknown
8:30 AM 66.2 °F - 46.4 °F 49% 30.12 in 6.2 mi SSW 3.5 mph - N/A   Unknown
9:00 AM 68.0 °F - 46.4 °F 46% 30.12 in 6.2 mi West 4.6 mph - N/A   Unknown
9:30 AM 69.8 °F - 46.4 °F 43% 30.12 in 6.2 mi West 6.9 mph - N/A   Unknown
10:00 AM 73.4 °F - 46.4 °F 38% 30.12 in 6.2 mi West 9.2 mph - N/A   Unknown
10:30 AM 73.4 °F - 44.6 °F 36% 30.09 in 6.2 mi West 12.7 mph - N/A   Unknown
11:00 AM 75.2 °F - 46.4 °F 36% 30.09 in 6.2 mi West 12.7 mph - N/A   Unknown
11:30 AM 77.0 °F - 46.4 °F 34% 30.09 in 6.2 mi West 12.7 mph - N/A   Unknown
12:00 PM 77.0 °F - 46.4 °F 34% 30.09 in 6.2 mi West 12.7 mph - N/A   Unknown
12:30 PM 78.8 °F - 48.2 °F 34% 30.09 in 6.2 mi West 11.5 mph - N/A   Unknown
1:00 PM 78.8 °F - 50.0 °F 36% 30.06 in 6.2 mi West 15.0 mph - N/A   Unknown
1:30 PM 82.4 °F - 51.8 °F 35% 30.04 in 6.2 mi West 15.0 mph 26.5 mph N/A   Unknown
2:00 PM 82.4 °F - 50.0 °F 32% 30.04 in 6.2 mi West 10.4 mph 23.0 mph N/A   Unknown
2:30 PM 82.4 °F - 48.2 °F 30% 30.01 in 6.2 mi NW 11.5 mph - N/A   Unknown
3:00 PM 84.2 °F - 48.2 °F 29% 30.01 in 6.2 mi WNW 13.8 mph - N/A   Unknown
3:30 PM 86.0 °F - 48.2 °F 27% 30.01 in 6.2 mi WNW 19.6 mph - N/A   Unknown
4:00 PM 84.2 °F - 48.2 °F 29% 30.01 in 6.2 mi WNW 20.7 mph - N/A   Unknown
4:30 PM 84.2 °F - 50.0 °F 30% 30.01 in 6.2 mi WNW 20.7 mph 32.2 mph N/A   Unknown
5:00 PM 84.2 °F - 51.8 °F 33% 29.98 in 6.2 mi NW 17.3 mph 29.9 mph N/A   Unknown
5:30 PM 84.2 °F - 51.8 °F 33% 29.98 in 6.2 mi WNW 16.1 mph 28.8 mph N/A   Unknown
6:00 PM 84.2 °F 82.8 °F 53.6 °F 35% 29.98 in 6.2 mi WNW 19.6 mph - N/A   Unknown
6:30 PM 80.6 °F - 51.8 °F 37% 29.98 in 6.2 mi NW 26.5 mph - N/A   Unknown
7:00 PM 78.8 °F - 51.8 °F 39% 29.98 in 6.2 mi NW 21.9 mph 36.8 mph N/A   Unknown
7:30 PM 78.8 °F - 51.8 °F 39% 29.98 in 6.2 mi NW 25.3 mph - N/A   Unknown
8:00 PM 77.0 °F - 53.6 °F 44% 29.98 in 6.2 mi NW 17.3 mph - N/A   Unknown
8:30 PM 77.0 °F - 53.6 °F 44% 30.01 in 6.2 mi NW 11.5 mph - N/A   Unknown
9:00 PM 77.0 °F - 53.6 °F 44% 30.01 in 6.2 mi WNW 9.2 mph - N/A   Unknown
9:30 PM 75.2 °F - 51.8 °F 44% 30.01 in 6.2 mi West 11.5 mph - N/A   Unknown
10:00 PM 75.2 °F - 51.8 °F 44% 30.01 in 6.2 mi WNW 17.3 mph - N/A   Unknown
10:30 PM 73.4 °F - 51.8 °F 47% 30.04 in 6.2 mi West 9.2 mph - N/A   Unknown
11:00 PM 71.6 °F - 51.8 °F 50% 30.04 in 6.2 mi WNW 6.9 mph - N/A   Unknown
11:30 PM 68.0 °F - 53.6 °F 60% 30.04 in 6.2 mi Variable 2.3 mph - N/A   Unknown